This is the latest recevied weather packets stored in our database for station/object N6ZHV-13. If no packets are shown the sender has not sent any weather packets the latest 10 day(s).
| Time | Temp. | Humidity | Pressure | Rain* | Wind** | Luminosity | Snow |
|---|---|---|---|---|---|---|---|
| 1777908893 | 15° C | 77% | 1017.6 hPa | 0 mm | - | - | - |
| 1777908593 | 15° C | 78% | 1017.7 hPa | 0 mm | - | - | - |
| 1777908293 | 14.44° C | 78% | 1017.6 hPa | 0 mm | - | - | - |
| 1777907993 | 15° C | 79% | 1017.6 hPa | 0 mm | - | - | - |
| 1777907693 | 15° C | 77% | 1017.5 hPa | 0 mm | - | - | - |
| 1777907393 | 15° C | 76% | 1017.5 hPa | 0 mm | - | - | - |
| 1777907093 | 15° C | 79% | 1017.5 hPa | 0 mm | - | - | - |
| 1777906793 | 15° C | 80% | 1017.5 hPa | 0 mm | - | - | - |
| 1777906493 | 14.44° C | 81% | 1017.5 hPa | 0 mm | - | - | - |
| 1777906193 | 14.44° C | 82% | 1017.5 hPa | 0 mm | - | - | - |
| 1777905893 | 14.44° C | 84% | 1017.5 hPa | 0 mm | - | - | - |
| 1777905593 | 14.44° C | 84% | 1017.6 hPa | 0 mm | - | - | - |
| 1777905293 | 13.89° C | 85% | 1016.5 hPa | 0 mm | - | - | - |
| 1777904993 | 13.89° C | 84% | 1016.7 hPa | 0 mm | - | - | - |
| 1777904693 | 13.89° C | 84% | 1017.5 hPa | 0 mm | - | - | - |
| 1777904393 | 13.89° C | 84% | 1017.5 hPa | 0 mm | - | - | - |
| 1777904093 | 13.89° C | 85% | 1017.4 hPa | 0 mm | - | - | - |
| 1777903793 | 13.89° C | 85% | 1017.5 hPa | 0 mm | - | - | - |
| 1777903493 | 13.89° C | 85% | 1017.5 hPa | 0 mm | - | - | - |
| 1777903193 | 13.89° C | 84% | 1016.1 hPa | 0 mm | - | - | - |
| 1777902893 | 13.89° C | 84% | 1017.4 hPa | 0 mm | - | - | - |
| 1777902593 | 13.33° C | 84% | 1017.6 hPa | 0 mm | - | - | - |
| 1777902293 | 13.33° C | 84% | 1017.5 hPa | 0 mm | - | - | - |
| 1777901993 | 13.33° C | 84% | 1017.5 hPa | 0 mm | - | - | - |
| 1777901693 | 13.33° C | 84% | 1017.5 hPa | 0 mm | - | - | - |
* Rain latest hour (hover to see other rain measurements)
** Current wind speed in m/s (hover to see current wind gust speed)